Weather History for KBDH - February, 2014

Change the Weather History Date:

Monday, February 10, 2014

  Actual Average (KLJF) Record (KLJF)
Temperature  
Mean Temperature -8 °F -  
Max Temperature 1 °F 24 °F 47 °F (1977)
Min Temperature -16 °F 7 °F -20 °F (2011)
Degree Days  
Heating Degree Days 72    
Moisture  
Dew Point -14 °F    
Average Humidity 73    
Maximum Humidity 78    
Minimum Humidity 66    
Precipitation  
Precipitation 0.00 in - - ()
Sea Level Pressure  
Sea Level Pressure 30.44 in    
Wind  
Wind Speed 6 mph (WNW)    
Max Wind Speed 9 mph    
Max Gust Speed -    
Visibility 10 miles    
Events      
Averages and records for this station are not official NWS values.
T = Trace of Precipitation, MM = Missing Value Source: NWS Daily Summary

Daily Weather History Graph

Daily Weather History Graph

Search for Another Location

Airport or City:

Trip Planner

Search our weather history database for the weather conditions in past years. The results will help you decide how hot, cold, wet, or windy it might be!

Date:

Astronomy

Feb. 10, 2014 Rise Set
Actual Time 7:28 AM CST 5:41 PM CST
Civil Twilight 6:58 AM CST 6:11 PM CST
Nautical Twilight 6:23 AM CST 6:46 PM CST
Astronomical Twilight 5:49 AM CST 7:20 PM CST
Moon 2:06 PM CST (2/10) 4:27 AM CST (2/10)
Length of Visible Light 11h 13m
Length of Day
10h 12m
Waxing Gibbous, 85% of the Moon is Illuminated
Feb 10
Waxing Gibbous
Feb 14
Full
Feb 22
Last Quarter
Mar 1
New
Mar 8
First Quarter

Hourly Weather History & Observations

Time (CST) Temp. Windchill Dew Point Humidity Pressure Visibility Wind Dir Wind Speed Gust Speed Precip Events Conditions
12:15 AM -11.2 °F -26.4 °F -18.4 °F 70% 30.41 in 10.0 mi West 6.9 mph - N/A   Clear
12:35 AM -11.2 °F -27.8 °F -18.4 °F 70% 30.41 in 10.0 mi West 8.1 mph - N/A   Clear
12:56 AM -11.2 °F -26.4 °F -16.6 °F 77% 30.42 in 10.0 mi West 6.9 mph - N/A   Clear
1:15 AM -11.2 °F -26.4 °F -18.4 °F 70% 30.42 in 10.0 mi West 6.9 mph - N/A   Clear
1:35 AM -11.2 °F -26.4 °F -16.6 °F 77% 30.41 in 10.0 mi WNW 6.9 mph - N/A   Clear
1:56 AM -11.2 °F -26.4 °F -16.6 °F 77% 30.41 in 10.0 mi WNW 6.9 mph - N/A   Clear
2:15 AM -11.2 °F -23.0 °F -18.4 °F 70% 30.42 in 10.0 mi WNW 4.6 mph - N/A   Clear
2:35 AM -13.0 °F -25.1 °F -18.4 °F 77% 30.42 in 10.0 mi WNW 4.6 mph - N/A   Clear
2:55 AM -14.8 °F -29.1 °F -20.2 °F 77% 30.42 in 10.0 mi West 5.8 mph - N/A   Clear
3:15 AM -14.8 °F -30.8 °F -20.2 °F 77% 30.42 in 10.0 mi West 6.9 mph - N/A   Clear
3:35 AM -13.0 °F -27.0 °F -18.4 °F 77% 30.42 in 10.0 mi West 5.8 mph - N/A   Clear
3:55 AM -14.8 °F -30.8 °F -20.2 °F 77% 30.42 in 10.0 mi West 6.9 mph - N/A   Clear
4:15 AM -13.0 °F -30.0 °F -18.4 °F 77% 30.43 in 10.0 mi West 8.1 mph - N/A   Clear
4:35 AM -11.2 °F -27.8 °F -18.4 °F 70% 30.43 in 10.0 mi WNW 8.1 mph - N/A   Clear
4:56 AM -13.0 °F -30.0 °F -18.4 °F 77% 30.44 in 10.0 mi West 8.1 mph - N/A   Clear
5:15 AM -14.8 °F -33.5 °F -20.2 °F 77% 30.44 in 10.0 mi WNW 9.2 mph - N/A   Clear
5:35 AM -11.2 °F -29.0 °F -18.4 °F 70% 30.44 in 10.0 mi WNW 9.2 mph - N/A   Clear
5:55 AM -13.0 °F -28.6 °F -18.4 °F 77% 30.44 in 10.0 mi WNW 6.9 mph - N/A   Clear
6:15 AM -13.0 °F -30.0 °F -20.2 °F 70% 30.43 in 10.0 mi NW 8.1 mph - N/A   Clear
6:35 AM -13.0 °F -27.0 °F -18.4 °F 77% 30.44 in 10.0 mi NW 5.8 mph - N/A   Clear
6:56 AM -14.8 °F - -20.2 °F 77% 30.44 in 10.0 mi Calm Calm - N/A   Clear
7:15 AM -14.8 °F - -20.2 °F 77% 30.44 in 10.0 mi Calm Calm - N/A   Clear
7:35 AM -16.6 °F -26.8 °F -22.0 °F 76% 30.45 in 10.0 mi West 3.5 mph - N/A   Clear
7:55 AM -14.8 °F -24.8 °F -20.2 °F 77% 30.45 in 7.0 mi NW 3.5 mph - N/A   Clear
8:15 AM -14.8 °F -27.2 °F -20.2 °F 77% 30.44 in 10.0 mi North 4.6 mph - N/A   Clear
8:35 AM -14.8 °F - -20.2 °F 77% 30.44 in 10.0 mi Calm Calm - N/A   Clear
8:55 AM -14.8 °F -24.8 °F -20.2 °F 77% 30.45 in 10.0 mi WNW 3.5 mph - N/A   Clear
9:15 AM -11.2 °F -23.0 °F -18.4 °F 70% 30.45 in 10.0 mi NW 4.6 mph - N/A   Clear
9:35 AM -11.2 °F -23.0 °F -16.6 °F 77% 30.46 in 10.0 mi NW 4.6 mph - N/A   Clear
9:55 AM -9.4 °F -22.7 °F -16.6 °F 71% 30.45 in 10.0 mi WNW 5.8 mph - N/A   Clear
10:15 AM -9.4 °F -22.7 °F -14.8 °F 77% 30.46 in 10.0 mi NW 5.8 mph - N/A   Clear
10:35 AM -7.6 °F -18.8 °F -14.8 °F 71% 30.47 in 10.0 mi NW 4.6 mph - N/A   Clear
10:55 AM -5.8 °F -14.5 °F -13.0 °F 71% 30.47 in 10.0 mi WNW 3.5 mph - N/A   Clear
11:15 AM -5.8 °F -18.4 °F -11.2 °F 77% 30.48 in 10.0 mi WNW 5.8 mph - N/A   Clear
11:36 AM -4.0 °F -17.8 °F -11.2 °F 71% 30.48 in 10.0 mi WNW 6.9 mph - N/A   Clear
11:55 AM -2.2 °F -15.6 °F -11.2 °F 66% 30.47 in 10.0 mi West 6.9 mph - N/A   Clear
12:16 PM -2.2 °F -15.6 °F -9.4 °F 71% 30.46 in 10.0 mi West 6.9 mph - N/A   Clear
12:35 PM -2.2 °F -14.2 °F -9.4 °F 71% 30.46 in 10.0 mi WNW 5.8 mph - N/A   Clear
12:56 PM -2.2 °F -16.8 °F -9.4 °F 71% 30.46 in 10.0 mi WNW 8.1 mph - N/A   Clear
1:15 PM -0.4 °F -15.7 °F -9.4 °F 66% 30.46 in 10.0 mi WNW 9.2 mph - N/A   Clear
1:35 PM -0.4 °F -15.7 °F -9.4 °F 66% 30.46 in 10.0 mi WNW 9.2 mph - N/A   Clear
1:56 PM -0.4 °F -15.7 °F -9.4 °F 66% 30.45 in 10.0 mi NW 9.2 mph - N/A   Clear
2:15 PM -0.4 °F -14.7 °F -7.6 °F 72% 30.44 in 10.0 mi NW 8.1 mph - N/A   Clear
2:35 PM -0.4 °F -14.7 °F -7.6 °F 72% 30.45 in 10.0 mi NW 8.1 mph - N/A   Clear
2:56 PM 1.4 °F -12.5 °F -7.6 °F 66% 30.44 in 10.0 mi NW 8.1 mph - N/A   Clear
3:15 PM 1.4 °F -12.5 °F -7.6 °F 66% 30.44 in 10.0 mi WNW 8.1 mph - N/A   Clear
3:35 PM 1.4 °F -12.5 °F -7.6 °F 66% 30.44 in 10.0 mi NW 8.1 mph - N/A   Clear
3:56 PM 1.4 °F -12.5 °F -7.6 °F 66% 30.44 in 10.0 mi NW 8.1 mph - N/A   Clear
4:15 PM 1.4 °F -12.5 °F -7.6 °F 66% 30.44 in 10.0 mi NW 8.1 mph - N/A   Clear
4:35 PM 1.4 °F -9.9 °F -7.6 °F 66% 30.44 in 10.0 mi WNW 5.8 mph - N/A   Clear
4:56 PM 1.4 °F -11.3 °F -7.6 °F 66% 30.45 in 10.0 mi West 6.9 mph - N/A   Clear
5:15 PM 1.4 °F -11.3 °F -7.6 °F 66% 30.45 in 10.0 mi West 6.9 mph - N/A   Clear
5:35 PM -0.4 °F -14.7 °F -7.6 °F 72% 30.45 in 10.0 mi West 8.1 mph - N/A   Clear
5:56 PM -0.4 °F -12.0 °F -7.6 °F 72% 30.45 in 10.0 mi West 5.8 mph - N/A   Clear
6:15 PM -2.2 °F -10.4 °F -9.4 °F 71% 30.45 in 10.0 mi West 3.5 mph - N/A   Clear
6:35 PM -2.2 °F -10.4 °F -9.4 °F 71% 30.45 in 10.0 mi WSW 3.5 mph - N/A   Clear
6:56 PM -4.0 °F -12.4 °F -9.4 °F 78% 30.45 in 10.0 mi West 3.5 mph - N/A   Clear
7:15 PM -2.2 °F - -9.4 °F 71% 30.44 in 10.0 mi Calm Calm - N/A   Clear
7:35 PM -4.0 °F - -9.4 °F 78% 30.44 in 10.0 mi Calm Calm - N/A   Clear
7:56 PM -7.6 °F - -13.0 °F 77% 30.44 in 10.0 mi Calm Calm - N/A   Clear
8:15 PM -5.8 °F - -11.2 °F 77% 30.44 in 10.0 mi Calm Calm - N/A   Clear
8:35 PM -5.8 °F - -11.2 °F 77% 30.44 in 10.0 mi Calm Calm - N/A   Clear
8:56 PM -7.6 °F - -13.0 °F 77% 30.44 in 10.0 mi Calm Calm - N/A   Clear
9:15 PM -9.4 °F - -14.8 °F 77% 30.43 in 10.0 mi Calm Calm - N/A   Clear
9:35 PM -9.4 °F - -14.8 °F 77% 30.44 in 10.0 mi Calm Calm - N/A   Clear
9:56 PM -9.4 °F - -14.8 °F 77% 30.44 in 10.0 mi Calm Calm - N/A   Clear
10:15 PM -7.6 °F - -14.8 °F 71% 30.44 in 10.0 mi Calm Calm - N/A   Clear
10:35 PM -11.2 °F - -18.4 °F 70% 30.44 in 10.0 mi Calm Calm - N/A   Clear
10:56 PM -11.2 °F - -16.6 °F 77% 30.43 in 10.0 mi Calm Calm - N/A   Clear
11:15 PM -13.0 °F - -18.4 °F 77% 30.42 in 10.0 mi Calm Calm - N/A   Clear
11:35 PM -11.2 °F - -18.4 °F 70% 30.42 in 10.0 mi Calm Calm - N/A   Clear
11:56 PM -13.0 °F - -18.4 °F 77% 30.42 in 10.0 mi Calm Calm - N/A   Clear